Starlink 32590

operational
NORAD ID: 63047 Int'l Des: 2025-034 Owner: SPXS Country: US Constellation: starlink
LEOCIRCULAR

Über Starlink 32590

Beschreibung wird geladen...

Live-Position

3D-Globus wird geladen...

Nächste Überflüge

Höhenverlauf

Altitude vs Time

uPlot chart will show altitude changes over time

Zweizeiliger Elementsatz

1 63047U 25034U 25352.16320132 .00023146 00000-0 79109-3 0 9994
2 63047 53.1583 276.8893 0001266 89.2138 270.9008 15.30203966 46591
Epoch: 18. Dez. 2025 • Age: 12 hours

Aktueller Status

Höhe 494.3 km
Geschwindigkeit 7.62 km/s
Subsatellitenpunkt -52.60°S, 156.37°W
Startdatum 18. Feb. 2025
Alter 0.8 years
Typ internet

Technische Details

Klassifizierung Payload
Masse 730.00 kg
Trockenmasse 700.00 kg
Gesamtmasse 730.00 kg
Länge 0.30 m
Durchmesser 4.10 m
Spannweite 29.00 m
Form Box + pan
Hersteller SPXS
Bus-Typ Starlink V2M
Phasenstatus In Orbit
Besitzer/Staat SPXS/US

Große Konstellationen

Loading constellations...